EW8697 Weather Reports


Display with metric or nautical units.
time (UTC)temp
F
wind
direction
speed
MPH
gust
MPH
rain 1hr
in
rain 24hr
in
rain mn
in
humidity
%
barometer
mb
20240225193026 42 248 0.0 2.0 0.00 0.00 0.00 49 1009.9
20240225191524 42 206 0.0 4.0 0.00 0.00 0.00 48 1010.1
20240225190016 41 207 0.0 1.0 0.00 0.00 0.00 50 1010.3
20240225184538 41 218 0.0 6.0 0.00 0.00 0.00 51 1010.6
20240225183029 40 188 0.0 5.0 0.00 0.00 0.00 52 1010.6
20240225181521 39 219 0.0 4.0 0.00 0.00 0.00 53 1010.9
20240225180017 39 214 0.0 8.0 0.00 0.00 0.00 55 1011.3
20240225174526 38 207 0.0 3.0 0.00 0.00 0.00 56 1011.7
20240225173023 37 179 0.0 0.0 0.00 0.00 0.00 58 1012.0
20240225171517 37 123 0.0 7.0 0.00 0.00 0.00 59 1012.0
20240225170031 36 202 0.0 4.0 0.00 0.00 0.00 59 1012.3
20240225164526 36 205 0.0 7.0 0.00 0.00 0.00 61 1012.4
20240225163020 35 148 0.0 3.0 0.00 0.00 0.00 62 1012.6
20240225161514 34 208 0.0 4.0 0.00 0.00 0.00 63 1012.9
20240225160033 33 146 0.0 7.0 0.00 0.00 0.00 64 1012.8
20240225154524 32 172 0.0 2.0 0.00 0.00 0.00 65 1013.2
20240225153017 31 184 1.0 10.0 0.00 0.00 0.00 66 1013.5
20240225151538 31 202 0.0 0.0 0.00 0.00 0.00 67 1013.7
20240225150035 30 129 0.0 9.0 0.00 0.00 0.00 67 1013.9
20240225144521 29 186 0.0 6.0 0.00 0.00 0.00 67 1014.1
20240225143019 28 190 0.0 7.0 0.00 0.00 0.00 68 1014.3
20240225141514 27 202 0.0 6.0 0.00 0.00 0.00 70 1014.3
20240225140027 26 138 0.0 8.0 0.00 0.00 0.00 72 1014.4
20240225134523 25 219 0.0 0.0 0.00 0.00 0.00 73 1014.6
20240225133016 24 220 0.0 1.0 0.00 0.00 0.00 74 1014.4
20240225131527 23 190 0.0 0.0 0.00 0.00 0.00 75 1014.4
20240225130018 23 226 0.0 3.0 0.00 0.00 0.00 76 1014.5
20240225124515 23 173 0.0 0.0 0.00 0.00 0.00 75 1014.5
20240225123028 22 160 0.0 0.0 0.00 0.00 0.00 75 1014.5
20240225121521 22 143 0.0 0.0 0.00 0.00 0.00 74 1014.3
20240225120020 22 167 0.0 0.0 0.00 0.00 0.00 74 1014.4
20240225114512 22 124 0.0 4.0 0.00 0.00 0.00 74 1014.5
20240225113032 22 191 0.0 3.0 0.00 0.00 0.00 74 1014.3
20240225111526 22 154 0.0 0.0 0.00 0.00 0.00 74 1014.4
20240225110016 22 211 0.0 0.0 0.00 0.00 0.00 75 1014.6
20240225104512 21 144 0.0 0.0 0.00 0.00 0.00 75 1015.0
20240225103040 21 159 0.0 0.0 0.00 0.00 0.00 75 1015.0
20240225101519 21 210 0.0 0.0 0.00 0.00 0.00 75 1015.1
20240225100021 21 141 0.0 0.0 0.00 0.00 0.00 75 1015.0
20240225094518 20 165 0.0 0.0 0.00 0.00 0.00 76 1015.1
20240225093034 20 210 0.0 0.0 0.00 0.00 0.00 76 1015.1
20240225091534 20 214 0.0 0.0 0.00 0.00 0.00 76 1015.0
20240225090013 20 182 0.0 0.0 0.00 0.00 0.00 76 1015.0
20240225084511 19 236 0.0 0.0 0.00 0.00 0.00 76 1015.1
20240225083024 19 221 0.0 0.0 0.00 0.00 0.00 76 1015.1
20240225081517 19 145 0.0 0.0 0.00 0.00 0.00 76 1015.1
20240225080013 19 184 0.0 0.0 0.00 0.00 0.00 76 1015.0
20240225074525 19 193 0.0 0.0 0.00 0.00 0.00 76 1015.3
20240225073022 19 164 0.0 0.0 0.00 0.00 0.00 75 1015.2
20240225071517 19 143 0.0 0.0 0.00 0.00 0.00 76 1015.0
20240225070012 19 155 0.0 0.0 0.00 0.00 0.00 76 1015.1
20240225064532 18 256 0.0 0.0 0.00 0.00 0.00 77 1015.5
20240225063030 18 309 0.0 0.0 0.00 0.00 0.00 79 1015.5
20240225061516 17 309 0.0 0.0 0.00 0.00 0.00 79 1015.4
20240225060031 17 309 0.0 0.0 0.00 0.00 0.00 79 1015.4
20240225054527 17 309 0.0 0.0 0.00 0.00 0.00 79 1015.4
20240225053017 17 309 0.0 0.0 0.00 0.00 0.00 78 1015.2
20240225051517 17 309 0.0 0.0 0.00 0.00 0.00 77 1015.1
20240225050026 17 309 0.0 0.0 0.00 0.00 0.00 77 1015.2
20240225044519 18 309 0.0 0.0 0.00 0.00 0.00 77 1015.4
20240225043015 17 309 0.0 0.0 0.00 0.00 0.00 77 1015.4
20240225041529 17 309 0.0 0.0 0.00 0.00 0.00 77 1015.3
20240225040023 17 309 0.0 0.0 0.00 0.00 0.00 76 1015.3
20240225034524 17 309 0.0 0.0 0.00 0.00 0.00 75 1015.5
20240225033012 18 309 0.0 0.0 0.00 0.00 0.00 75 1015.5
20240225031527 18 309 0.0 0.0 0.00 0.00 0.00 73 1015.3
20240225030022 18 309 0.0 0.0 0.00 0.00 0.00 71 1015.4
20240225024514 18 309 0.0 0.0 0.00 0.00 0.00 70 1015.7
20240225023024 19 309 0.0 0.0 0.00 0.00 0.00 70 1015.8
20240225021525 19 309 0.0 0.0 0.00 0.00 0.00 68 1015.6
20240225020021 19 309 0.0 0.0 0.00 0.00 0.00 66 1015.5
20240225014515 20 309 0.0 0.0 0.00 0.00 0.00 65 1015.5
20240225013030 20 309 0.0 0.0 0.00 0.00 0.00 64 1015.3
20240225011533 21 309 0.0 0.0 0.00 0.00 0.00 64 1015.2
20240225010019 21 309 0.0 0.0 0.00 0.00 0.00 64 1015.1
20240225004530 21 309 0.0 0.0 0.00 0.00 0.00 63 1015.0
20240225003032 22 293 0.0 0.0 0.00 0.00 0.00 62 1015.0
20240225001518 22 307 0.0 0.0 0.00 0.00 0.00 62 1014.8
20240225000013 22 304 0.0 0.0 0.00 0.00 0.00 61 1014.6
20240224234530 23 310 0.0 0.0 0.00 0.00 0.00 60 1014.2
20240224233024 23 295 0.0 0.0 0.00 0.00 0.00 58 1014.0
20240224231514 24 292 0.0 0.0 0.00 0.00 0.00 55 1013.8
20240224230012 24 297 0.0 0.0 0.00 0.00 0.00 54 1013.7
20240224224526 25 283 0.0 0.0 0.00 0.00 0.00 53 1013.5
20240224223019 25 309 0.0 1.0 0.00 0.00 0.00 51 1013.1
20240224221512 26 308 0.0 0.0 0.00 0.00 0.00 51 1013.0
20240224220028 26 307 0.0 0.0 0.00 0.00 0.00 52 1012.9
20240224214523 27 304 0.0 0.0 0.00 0.00 0.00 51 1012.5
20240224213018 28 349 0.0 0.0 0.00 0.00 0.00 49 1012.3
20240224211518 28 328 0.0 0.0 0.00 0.00 0.00 52 1012.1
20240224210030 28 4 0.0 1.0 0.00 0.00 0.00 50 1011.7
20240224204526 28 297 0.0 3.0 0.00 0.00 0.00 46 1011.3
20240224203018 28 319 0.0 0.0 0.00 0.00 0.00 49 1011.3
20240224201511 28 347 0.0 0.0 0.00 0.00 0.00 49 1011.1
20240224200025 28 333 0.0 0.0 0.00 0.00 0.00 50 1010.8
20240224194516 28 321 0.0 2.0 0.00 0.00 0.00 49 1010.8